Wind_Speed
2 2 3 6 9 8 7 8 9 8 8 9 12 18 23 27 30 30 28 25 23 20 17 16 16 15 15 14 14 13 11 9 9 9 11 12 12 12 12 11 10 10
3 2 3 5 8 10 9 10 11 10 10 10 12 17 21 25 27 28 27 25 23 20 17 16 15 15 14 13 13 11 10 8 7 8 9 8 8 9 10 9 8 7
5 3 3 5 7 10 10 11 12 12 13 13 13 16 20 22 24 25 25 25 24 21 18 16 15 14 14 13 12 10 8 7 6 5 5 5 6 7 9 9 7 4
6 4 5 5 6 10 12 12 13 14 15 16 16 17 19 21 22 23 23 24 24 22 20 18 16 15 14 13 11 10 8 6 5 3 2 3 4 6 8 7 4 1
9 6 6 6 6 10 13 13 13 13 15 17 19 19 20 21 22 22 22 23 24 23 21 19 18 17 15 14 12 11 10 8 7 5 4 4 5 6 7 7 4 2
14 10 8 8 9 11 14 15 14 13 14 17 20 22 23 23 23 23 23 23 23 24 23 21 20 19 18 16 15 14 13 12 11 9 8 7 8 9 9 9 7 5
16 14 12 11 10 11 13 14 15 15 15 17 20 23 25 26 26 25 24 24 24 24 24 23 22 21 20 19 18 17 16 15 14 12 11 10 10 11 12 12 11 9
18 17 17 14 11 10 10 11 14 16 17 18 20 23 25 26 27 28 27 26 25 25 25 25 24 24 22 21 20 19 19 18 17 15 13 12 12 13 14 15 15 13
22 22 21 17 13 10 8 8 12 16 18 19 20 22 24 26 27 29 29 29 28 27 27 27 26 25 24 24 23 22 22 21 20 18 16 14 14 14 15 17 18 17
26 25 25 23 18 13 12 10 9 13 18 19 20 22 25 26 27 28 30 30 30 30 31 30 29 28 27 27 27 26 25 25 24 23 21 19 17 15 15 17 18 20
28 28 28 29 26 19 17 16 13 12 14 16 19 22 25 26 26 28 29 29 30 32 33 33 33 32 31 30 30 29 28 28 28 28 26 25 22 20 18 17 17 19
31 31 31 32 32 26 21 21 20 18 17 16 17 20 23 24 25 27 28 27 27 30 34 35 36 36 35 34 33 33 32 31 31 31 31 30 28 26 23 21 20 20
36 36 36 36 36 33 29 27 27 27 26 24 23 24 25 25 24 26 27 26 25 29 33 35 36 38 38 37 37 37 36 35 35 34 34 34 32 31 29 27 26 25
42 42 42 42 41 39 37 36 35 35 34 32 31 31 29 27 25 26 27 29 30 33 36 37 37 38 39 39 40 40 39 39 38 37 36 36 36 35 34 32 31 30
48 48 47 47 47 46 44 43 42 43 43 38 36 35 33 30 29 31 32 34 34 34 36 39 40 39 40 41 41 41 41 41 40 40 39 39 39 39 39 38 37 37
51 51 50 50 50 51 51 48 47 50 50 44 39 39 39 35 34 36 37 37 36 36 37 39 41 41 40 41 42 43 43 43 42 42 42 42 42 42 42 42 42 41
53 53 52 52 53 53 54 54 53 54 54 49 43 42 42 40 38 39 41 40 39 40 39 39 41 42 41 41 42 43 43 44 43 42 42 43 44 44 44 43 43 43
55 54 53 54 56 57 57 57 57 56 55 53 50 46 44 44 42 42 43 44 44 44 43 41 42 43 43 42 42 43 44 44 44 44 43 43 44 44 44 43 43 42
56 56 56 56 58 60 60 60 59 58 56 54 53 50 47 47 46 45 45 46 47 48 46 45 45 45 46 45 44 44 45 45 46 45 45 45 45 45 44 43 41 41
54 56 57 58 58 60 61 61 60 60 58 56 55 54 51 49 49 48 48 48 48 48 47 47 48 48 48 48 47 47 47 48 48 47 47 47 47 46 45 44 43 42
50 52 55 57 58 58 60 61 61 61 60 58 56 56 54 52 51 51 51 51 51 50 49 48 49 51 51 51 50 49 49 51 51 50 49 49 49 47 46 46 46 46
48 49 51 53 55 56 57 59 60 61 60 59 57 57 57 55 54 53 53 54 54 54 53 51 50 51 53 54 54 53 52 52 53 53 52 52 51 50 49 49 49 49
47 49 50 51 53 54 55 56 58 59 60 59 58 57 57 57 57 55 55 56 57 58 58 56 54 52 53 54 55 55 55 54 54 54 54 54 53 52 52 52 52 51
47 48 50 51 52 53 54 55 56 58 59 59 59 59 58 58 58 58 57 56 58 60 61 61 59 57 56 55 56 57 57 57 56 55 55 55 55 54 54 54 53 53
42 45 48 49 51 52 53 54 55 57 58 59 60 60 60 60 60 60 59 58 58 60 62 64 64 62 60 59 58 58 58 59 58 57 57 57 56 57 56 55 53 52
36 40 43 46 48 50 52 54 55 56 57 58 60 61 62 62 62 63 63 61 60 60 62 65 67 66 64 63 62 61 61 61 60 60 59 58 58 59 59 58 55 53
Wind_Direction
301 292 275 265 259 260 241 206 192 178 167 155 158 162 156 152 154 157 157 156 156 155 151 149 153 153 149 145 143 143 140 138 136 136 133 125 122 123 120 114 106 103
249 293 307 275 248 244 235 210 200 194 188 177 167 168 167 163 162 163 165 166 166 166 164 159 159 161 160 155 152 149 144 138 135 142 146 139 131 129 127 120 105 92
228 255 276 288 256 232 220 208 205 200 197 194 185 178 177 176 174 173 173 174 174 174 174 171 168 168 170 168 164 162 156 146 138 142 157 160 152 144 138 131 115 85
229 252 257 267 260 230 214 207 208 205 201 202 200 195 189 186 185 184 183 184 184 183 183 183 181 180 181 182 182 183 183 179 171 167 188 205 189 170 157 150 145 123
235 259 259 229 222 225 215 207 208 211 210 209 209 208 204 200 196 195 195 196 196 196 194 193 193 193 194 196 199 203 207 212 216 215 223 238 233 213 193 186 195 215
240 254 255 224 213 219 216 214 217 219 220 220 217 216 214 212 208 205 205 205 205 205 206 205 204 205 206 208 212 217 220 222 226 229 233 240 244 239 225 216 220 228
244 250 246 230 222 220 218 224 229 226 226 227 223 220 219 218 217 215 213 213 212 212 212 213 213 214 215 218 222 227 229 227 225 228 234 241 245 245 240 232 229 231
245 245 239 228 220 217 215 226 235 231 228 230 226 222 222 223 222 220 220 220 219 218 218 218 219 221 223 226 230 234 235 231 228 228 235 242 246 247 246 242 237 237
245 241 236 227 218 218 221 232 244 240 234 232 228 224 224 226 227 225 225 225 225 226 225 224 224 227 230 234 237 239 238 235 233 235 239 243 245 246 247 246 243 242
246 243 239 234 231 237 241 234 233 239 240 238 233 229 228 228 229 231 231 231 232 232 231 230 230 231 235 238 240 240 240 239 238 240 243 245 244 245 246 248 248 248
248 247 244 241 241 244 241 226 213 224 238 240 240 237 233 230 230 232 234 236 238 238 236 235 235 235 238 241 242 242 241 242 242 244 245 246 245 244 246 249 251 252
250 248 246 245 243 241 235 225 224 232 233 233 241 241 237 237 233 231 234 238 240 240 238 237 238 238 240 242 244 244 244 245 246 247 247 247 247 245 245 248 251 254
255 252 250 249 246 242 236 231 235 240 238 241 252 251 246 245 238 232 235 239 239 239 238 238 240 241 242 243 243 244 245 247 248 248 248 249 249 247 245 247 251 255
257 255 253 251 249 244 239 236 238 241 242 249 258 258 254 250 238 230 234 238 241 243 241 239 241 244 245 245 245 244 245 247 248 249 249 250 250 250 249 250 253 257
256 255 254 251 250 246 241 238 239 241 246 253 257 256 256 254 243 234 234 238 242 244 242 241 243 245 247 246 246 245 245 246 248 249 250 251 252 252 253 255 257 260
252 254 254 250 248 247 246 245 243 246 253 259 258 255 254 253 247 241 239 241 245 246 246 245 245 246 248 248 246 246 246 246 248 250 251 253 254 255 256 258 260 261
251 253 253 251 248 248 251 253 253 254 258 261 260 256 253 251 248 244 242 243 247 248 248 247 245 245 247 248 247 247 247 247 249 251 253 253 255 256 257 259 261 263
254 252 251 251 251 251 253 256 258 259 261 260 259 257 253 250 249 247 243 243 245 247 247 247 246 245 246 249 250 248 248 249 249 251 252 253 254 256 257 260 262 263
255 251 249 250 251 252 253 255 256 258 260 259 258 256 252 249 249 249 246 245 245 246 248 248 247 247 247 248 250 249 249 249 250 250 251 252 254 256 257 258 260 262
257 253 251 251 250 250 252 253 253 254 257 258 257 257 254 250 248 249 249 247 247 247 248 248 248 247 247 248 249 249 249 249 249 250 250 252 254 255 256 257 258 260
259 257 255 254 253 252 251 251 250 251 253 255 255 257 256 251 249 249 250 249 249 249 249 249 249 248 248 247 248 249 249 249 249 250 251 252 254 255 256 257 257 258
259 258 258 257 256 255 253 251 250 249 250 251 252 254 256 254 251 250 251 250 250 250 250 250 249 249 249 248 248 249 250 250 250 250 251 253 254 255 256 256 256 257
258 258 257 257 256 256 256 254 252 251 250 250 251 251 253 255 254 253 252 251 250 250 251 251 250 249 249 249 249 249 250 251 251 251 251 252 253 254 255 255 256 256
262 259 257 257 256 256 256 256 255 254 253 253 252 252 252 253 254 254 253 252 250 250 250 251 250 249 248 249 249 249 249 250 251 251 251 252 253 253 254 255 256 256
266 263 260 258 257 256 256 256 256 256 255 255 255 254 254 253 254 255 254 253 251 249 249 249 249 249 249 249 249 248 248 249 251 252 251 252 252 253 254 254 254 254
271 266 263 261 259 258 256 256 256 256 256 256 256 256 256 256 255 256 256 254 252 251 249 247 247 248 248 249 249 249 248 249 251 252 253 252 252 253 253 253 252 253
Height
10973 10973 10973 10972 10972 10972 10972 10972 10972 10972 10972 10973 10974 10975 10975 10975 10975 10976 10978 10979 10980 10981 10982 10983 10984 10985 10986 10986 10987 10988 10989 10989 10990 10991 10991 10991 10991 10991 10991 10991 10991 10991
10972 10972 10972 10972 10972 10972 10972 10972 10972 10972 10973 10974 10975 10975 10976 10976 10976 10977 10978 10979 10980 10981 10982 10983 10984 10986 10987 10987 10988 10989 10990 10990 10991 10991 10992 10992 10992 10992 10992 10992 10992 10992
10971 10971 10972 10971 10971 10971 10971 10971 10972 10972 10973 10973 10975 10976 10976 10977 10977 10978 10978 10979 10980 10981 10982 10983 10984 10986 10987 10987 10988 10989 10990 10991 10991 10991 10992 10992 10993 10993 10993 10992 10993 10993
10969 10970 10970 10970 10970 10970 10970 10971 10971 10971 10972 10973 10974 10975 10976 10977 10977 10978 10978 10979 10980 10980 10981 10983 10984 10985 10986 10987 10988 10989 10990 10990 10991 10991 10992 10992 10993 10993 10993 10993 10993 10994
10966 10967 10968 10969 10969 10969 10969 10969 10970 10971 10971 10972 10973 10975 10976 10977 10977 10977 10978 10979 10979 10980 10981 10982 10983 10984 10986 10986 10987 10988 10989 10990 10991 10991 10991 10992 10993 10993 10993 10993 10993 10994
10964 10965 10966 10967 10967 10967 10967 10968 10968 10969 10970 10971 10972 10973 10975 10976 10976 10977 10977 10977 10978 10979 10979 10981 10982 10983 10984 10985 10986 10987 10988 10989 10990 10990 10991 10992 10992 10993 10993 10993 10994 10994
10962 10963 10964 10965 10966 10966 10966 10966 10967 10967 10968 10969 10970 10971 10972 10973 10974 10975 10975 10976 10976 10977 10978 10979 10980 10981 10982 10984 10985 10986 10987 10988 10989 10990 10990 10991 10992 10992 10993 10993 10994 10994
10959 10961 10962 10963 10964 10964 10965 10965 10965 10965 10966 10966 10967 10968 10969 10970 10971 10972 10973 10974 10974 10975 10976 10977 10978 10979 10981 10982 10983 10985 10986 10987 10988 10988 10989 10990 10991 10991 10992 10992 10993 10994
10956 10958 10959 10961 10962 10962 10963 10963 10963 10963 10964 10964 10965 10966 10966 10967 10969 10970 10970 10971 10972 10973 10974 10975 10976 10978 10979 10980 10982 10983 10984 10985 10986 10987 10988 10989 10989 10990 10990 10991 10992 10992
10953 10955 10956 10958 10959 10960 10960 10961 10961 10961 10962 10962 10963 10963 10963 10964 10965 10966 10967 10968 10969 10970 10971 10973 10974 10976 10977 10978 10979 10980 10982 10983 10984 10985 10986 10987 10988 10988 10989 10989 10990 10991
10950 10951 10953 10954 10956 10957 10958 10958 10958 10959 10960 10960 10960 10960 10960 10961 10961 10962 10963 10964 10966 10967 10969 10970 10972 10973 10974 10975 10976 10977 10978 10980 10981 10982 10983 10984 10985 10986 10986 10987 10988 10989
10946 10948 10949 10951 10952 10953 10954 10954 10955 10956 10957 10957 10957 10957 10957 10957 10958 10959 10960 10961 10963 10964 10965 10967 10969 10970 10971 10972 10973 10974 10975 10977 10978 10979 10980 10981 10982 10983 10983 10984 10985 10986
10942 10944 10945 10947 10948 10949 10950 10950 10951 10952 10954 10954 10954 10954 10954 10954 10954 10955 10958 10959 10960 10960 10961 10963 10964 10965 10967 10968 10969 10970 10971 10973 10974 10975 10976 10978 10978 10979 10980 10981 10981 10982
10937 10939 10941 10942 10943 10945 10946 10946 10946 10947 10949 10951 10951 10950 10949 10950 10950 10953 10956 10957 10957 10957 10957 10959 10960 10961 10963 10964 10965 10966 10967 10968 10969 10971 10972 10974 10975 10976 10977 10977 10978 10979
10932 10934 10936 10937 10938 10939 10940 10941 10941 10941 10943 10945 10947 10946 10945 10946 10948 10951 10953 10953 10952 10952 10953 10954 10956 10957 10958 10959 10961 10962 10963 10964 10965 10967 10968 10969 10971 10972 10973 10974 10975 10976
10927 10928 10929 10931 10931 10932 10933 10934 10936 10936 10936 10939 10942 10942 10942 10943 10944 10946 10948 10949 10948 10948 10949 10950 10951 10952 10953 10954 10955 10957 10958 10959 10961 10963 10964 10965 10966 10967 10968 10969 10970 10971
10921 10922 10922 10923 10925 10925 10926 10927 10929 10930 10931 10933 10936 10938 10938 10939 10940 10941 10943 10944 10944 10943 10944 10945 10946 10947 10948 10949 10950 10952 10953 10955 10957 10958 10959 10960 10961 10962 10963 10965 10966 10967
10915 10917 10917 10917 10918 10920 10921 10921 10923 10924 10926 10928 10930 10932 10933 10934 10935 10936 10937 10938 10938 10938 10939 10941 10941 10942 10944 10944 10946 10947 10949 10951 10952 10953 10954 10955 10956 10957 10959 10960 10961 10962
10909 10911 10913 10913 10914 10914 10915 10916 10917 10918 10919 10922 10924 10926 10928 10929 10929 10930 10931 10932 10932 10933 10935 10936 10937 10938 10939 10940 10941 10943 10944 10946 10946 10948 10949 10949 10950 10952 10954 10955 10956 10957
10903 10905 10907 10908 10909 10909 10910 10911 10911 10912 10913 10915 10917 10918 10920 10922 10923 10924 10925 10925 10926 10928 10929 10931 10932 10933 10934 10935 10936 10937 10939 10940 10941 10942 10943 10944 10945 10946 10948 10950 10951 10951
10896 10897 10899 10901 10902 10903 10904 10904 10905 10906 10907 10908 10909 10911 10912 10914 10916 10917 10918 10919 10920 10922 10923 10925 10926 10927 10929 10930 10931 10932 10933 10934 10935 10936 10937 10938 10939 10941 10944 10945 10944 10944
10888 10889 10891 10892 10894 10895 10896 10897 10897 10899 10900 10901 10903 10904 10905 10906 10908 10910 10911 10913 10914 10915 10917 10918 10920 10921 10923 10924 10925 10926 10927 10927 10929 10931 10932 10933 10934 10936 10938 10937 10936 10937
10880 10882 10883 10884 10885 10886 10888 10889 10890 10891 10892 10894 10895 10897 10897 10898 10900 10902 10904 10905 10907 10908 10910 10912 10914 10915 10916 10917 10919 10920 10921 10921 10923 10925 10926 10927 10928 10930 10930 10929 10930 10932
10873 10874 10875 10876 10877 10878 10879 10880 10882 10883 10884 10886 10887 10889 10890 10891 10892 10893 10895 10897 10899 10900 10902 10904 10906 10908 10910 10911 10912 10913 10914 10914 10916 10918 10919 10920 10922 10923 10923 10923 10924 10925
10866 10867 10867 10868 10869 10870 10871 10872 10873 10874 10876 10877 10879 10880 10882 10883 10884 10885 10886 10888 10890 10892 10894 10896 10898 10901 10903 10904 10906 10907 10907 10908 10908 10910 10912 10914 10915 10915 10915 10917 10918 10919
10861 10860 10860 10861 10861 10862 10863 10864 10865 10866 10867 10869 10870 10871 10873 10875 10876 10877 10878 10880 10882 10884 10885 10887 10889 10892 10895 10897 10898 10900 10901 10901 10901 10902 10904 10906 10908 10908 10908 10909 10911 10912